Location: Thompson
(55.7500°N, 97.8670°W)
Time: 20:49:34
(UTC-06:00)

Amateur Radio Satellites - All Passes

Search period start: 05 December 2016 20:19
Search period end: 06 December 2016 20:19
Location: Thompson, 55.7500°N, 97.8670°W

Satellite Date Start Highest point End Downlink Frequencies (MHz)
Time Altitude Azimuth
CUBESAT XI-V 05 Dec 20:19:54 20:20:56 11° 316° (NW) 20:21:58 437.345
FUNcube-1 05 Dec 20:20:53 20:25:24 78° 72° (ENE) 20:29:51 145.935
CUBEBUG 2 05 Dec 20:23:42 20:28:19 49° 261° (W) 20:32:53 437.445
Cosmos 2491 05 Dec 20:26:57 20:33:54 28° 283° (WNW) 20:40:51 435.465 / 435.565
STRAND 1 05 Dec 20:28:22 20:33:31 85° 288° (WNW) 20:38:37 437.568
Cosmos 2504 05 Dec 20:29:39 20:38:06 73° 96° (E) 20:46:59 435.465 / 435.565
CANX-2 05 Dec 20:38:20 20:41:00 16° 273° (W) 20:43:40 2200.000
AAUSAT CUBESAT 2 05 Dec 20:44:31 20:48:13 32° 265° (W) 20:51:58 437.432
Oscar 11 05 Dec 20:52:25 20:56:42 59° 259° (W) 21:00:59 145.826/435.025
YUBILEINY 05 Dec 21:02:32 21:11:02 54° 293° (WNW) 21:19:38 435.215
SEEDS 05 Dec 21:05:05 21:07:22 14° 274° (W) 21:09:41 437.485
UWE-3 05 Dec 21:07:49 21:11:55 30° 266° (W) 21:15:59 435.000/436.395/437.385
CUSAT 1 05 Dec 21:10:20 21:13:21 36° 261° (W) 21:17:07 437.405
COMPASS 1 05 Dec 21:16:01 21:18:29 15° 273° (W) 21:20:59 437.405
ESTCUBE 1 05 Dec 21:17:29 21:20:33 18° 53° (NE) 21:23:37 437.505/2401.250
ISS 05 Dec 21:23:40 21:26:41 32° 195° (SSW) 21:29:40 145.825
AIST 1 05 Dec 21:23:55 21:27:58 38° 291° (WNW) 21:32:05
HO-68 05 Dec 21:26:13 21:30:32 17° 279° (W) 21:34:55 435.675
AISAT 05 Dec 21:26:58 21:28:58 13° 47° (NE) 21:31:00 437.250
PCSat 05 Dec 21:39:23 21:43:57 28° 247° (WSW) 21:48:28 145.827
O/OREOS (USA 219) 05 Dec 21:39:57 21:40:38 10° 1° (N) 21:41:20 437.305
PRISM 05 Dec 21:42:25 21:46:29 50° 101° (E) 21:50:33 437.425
HUMSAT D 05 Dec 21:44:36 21:48:49 75° 256° (WSW) 21:53:00 437.325/437.525
DELFI C3 05 Dec 21:46:16 21:50:00 41° 262° (W) 21:53:46 145.870
SO-50 05 Dec 21:48:55 21:53:40 76° 135° (SE) 21:58:20 436.795
ZACube-1 05 Dec 21:50:51 21:54:11 20° 271° (W) 21:57:29 437.345
CUBEBUG 1 05 Dec 21:52:13 21:55:37 22° 56° (ENE) 21:59:02 437.445
DANDE 05 Dec 21:52:56 21:55:27 39° 260° (W) 21:58:14 436.750
FUNcube-1 05 Dec 21:59:03 22:02:10 18° 272° (W) 22:05:15 145.935
VELOX 1 05 Dec 22:02:13 22:05:32 21° 55° (NE) 22:08:52 145.980
STRAND 1 05 Dec 22:08:22 22:12:05 21° 309° (NW) 22:15:46 437.568
UNISAT 6 05 Dec 22:08:23 22:12:14 28° 93° (E) 22:15:59 437.425
DX 1 05 Dec 22:17:08 22:20:06 18° 53° (NE) 22:23:04 434.975-435.025
Cosmos 2504 05 Dec 22:24:22 22:32:18 39° 301° (WNW) 22:40:34 435.465 / 435.565
UKube-1 05 Dec 22:25:09 22:27:55 17° 52° (NE) 22:30:42 .
JAS-2 05 Dec 22:35:18 22:38:01 14° 83° (E) 22:40:45 435.910
SPROUT 05 Dec 22:37:25 22:41:02 26° 59° (ENE) 22:44:39 437.525
TIGRISAT 05 Dec 22:38:17 22:42:36 46° 99° (E) 22:46:47 435.000
ANTELSAT 05 Dec 22:39:38 22:44:00 49° 99° (E) 22:48:14 437.575/2403.000
NANOSAT C BR1 05 Dec 22:52:14 22:53:00 10° 83° (E) 22:53:46 145.865
ESTCUBE 1 05 Dec 22:52:18 22:56:48 90° 250° (WSW) 23:01:19 437.505/2401.250
QB50P2 05 Dec 22:56:41 22:58:44 13° 85° (E) 23:00:46 145.880/145.840
POLYITAN 1 05 Dec 22:57:21 22:59:15 13° 85° (E) 23:01:07 437.675
AISAT 05 Dec 23:00:14 23:04:35 57° 68° (ENE) 23:08:59 437.250
ISS 05 Dec 23:00:52 23:02:30 13° 214° (SW) 23:04:06 145.825
YUBILEINY 05 Dec 23:04:22 23:10:22 20° 322° (NW) 23:16:25 435.215
QB50P1 05 Dec 23:09:54 23:12:36 16° 87° (E) 23:15:16 145.935-145.965
50 SAT 05 Dec 23:09:59 23:13:23 51° 69° (ENE) 23:16:50 437.505
DUCHIFAT 1 05 Dec 23:13:11 23:15:41 15° 87° (E) 23:18:11 145.980
PRISM 05 Dec 23:18:07 23:21:35 26° 301° (WNW) 23:25:03 437.425
O/OREOS (USA 219) 05 Dec 23:19:05 23:22:00 16° 27° (NNE) 23:24:54 437.305
HUMSAT D 05 Dec 23:23:38 23:25:11 12° 276° (W) 23:26:42 437.325/437.525
CUBEBUG 1 05 Dec 23:27:09 23:31:31 68° 257° (WSW) 23:35:57 437.445
SO-50 05 Dec 23:30:06 23:34:31 38° 337° (NNW) 23:38:52 436.795
POPSAT HIP 1 05 Dec 23:30:53 23:34:22 24° 92° (E) 23:37:47 437.405
Cosmos 2499 05 Dec 23:32:44 23:39:26 26° 74° (ENE) 23:46:15 435.465 / 435.565
AUBIESAT-1 05 Dec 23:33:46 23:36:01 14° 39° (NE) 23:38:18 437.475
VELOX 1 05 Dec 23:37:08 23:41:33 75° 256° (WSW) 23:46:02 145.980
M-CUBED/EXP-1 PRIME 05 Dec 23:44:50 23:47:47 18° 43° (NE) 23:50:49 437.505
UNISAT 6 05 Dec 23:44:52 23:49:12 48° 293° (WNW) 23:53:24 437.425
GONETS M04 05 Dec 23:45:15 23:52:05 27° 76° (ENE) 23:58:54
SWISSCUBE 05 Dec 23:48:08 23:50:08 13° 44° (NE) 23:52:07 437.505
DX 1 05 Dec 23:51:21 23:55:44 90° 259° (W) 00:00:09 434.975-435.025
BEESAT 05 Dec 23:52:15 23:54:13 12° 44° (NE) 23:56:11 436.000
UKube-1 05 Dec 23:59:03 00:03:22 85° 72° (ENE) 00:07:45 .
TISAT 1 06 Dec 00:00:02 00:03:48 32° 62° (ENE) 00:07:37 437.305
BUGSAT 1 06 Dec 00:10:44 00:14:03 22° 91° (E) 00:17:20 437.445
SPROUT 06 Dec 00:12:30 00:16:44 53° 260° (W) 00:21:00 437.525
TIGRISAT 06 Dec 00:15:15 00:19:10 30° 299° (WNW) 00:22:59 435.000
ANTELSAT 06 Dec 00:16:42 00:20:32 29° 300° (WNW) 00:24:18 437.575/2403.000
ITUPSAT 1 06 Dec 00:18:13 00:21:23 18° 50° (NE) 00:24:31 437.325
JAS-2 06 Dec 00:18:57 00:24:11 76° 105° (ESE) 00:29:28 435.910
Cosmos 2504 06 Dec 00:23:53 00:28:54 16° 330° (NNW) 00:33:59 435.465 / 435.565
NANOSAT C BR1 06 Dec 00:25:21 00:29:36 66° 103° (ESE) 00:33:48 145.865
QB50P2 06 Dec 00:30:57 00:35:16 83° 108° (ESE) 00:39:30 145.880/145.840
POLYITAN 1 06 Dec 00:31:30 00:35:48 80° 105° (ESE) 00:40:02 437.675
ESTCUBE 1 06 Dec 00:31:37 00:34:17 15° 274° (W) 00:36:59 437.505/2401.250
AISAT 06 Dec 00:37:47 00:41:24 24° 268° (W) 00:45:02 437.250
50 SAT 06 Dec 00:44:30 00:46:59 18° 269° (W) 00:49:29 437.505
QB50P1 06 Dec 00:44:39 00:48:57 81° 286° (WNW) 00:53:11 145.935-145.965
DUCHIFAT 1 06 Dec 00:47:43 00:51:59 85° 289° (WNW) 00:56:12 145.980
Gurwin Techsat 1B 06 Dec 00:57:09 00:59:07 12° 81° (E) 01:01:04 435.225
O/OREOS (USA 219) 06 Dec 00:58:03 01:02:29 51° 51° (NE) 01:06:50 437.305
MOZHAYETS 4 06 Dec 01:00:19 01:02:08 12° 47° (NE) 01:03:57
Oscar 19 06 Dec 01:01:28 01:05:26 22° 89° (E) 01:09:24 437.125/150
AUBIESAT-1 06 Dec 01:05:19 01:09:29 51° 60° (ENE) 01:13:54 437.475
POPSAT HIP 1 06 Dec 01:06:15 01:10:26 54° 292° (WNW) 01:14:35 437.405
CUBEBUG 1 06 Dec 01:07:17 01:08:41 11° 277° (W) 01:10:05 437.445
YUBILEINY 06 Dec 01:10:16 01:12:03 11° 356° (N) 01:13:51 435.215
SO-50 06 Dec 01:12:00 01:16:02 27° 1° (N) 01:19:59 436.795
VELOX 1 06 Dec 01:16:51 01:18:49 13° 276° (W) 01:20:49 145.980
M-CUBED/EXP-1 PRIME 06 Dec 01:17:16 01:21:31 73° 64° (ENE) 01:26:06 437.505
SWISSCUBE 06 Dec 01:22:20 01:26:56 50° 66° (ENE) 01:31:34 437.505
Cosmos 2499 06 Dec 01:22:37 01:31:20 81° 98° (E) 01:40:17 435.465 / 435.565
UNISAT 6 06 Dec 01:23:38 01:24:55 11° 315° (NW) 01:26:10 437.425
BEESAT 06 Dec 01:26:24 01:31:01 50° 65° (ENE) 01:35:38 436.000
DX 1 06 Dec 01:30:04 01:32:35 15° 273° (W) 01:35:08 434.975-435.025
KKS-1 06 Dec 01:32:09 01:33:47 12° 46° (NE) 01:35:26 437.445
TISAT 1 06 Dec 01:35:21 01:39:23 41° 262° (W) 01:43:27 437.305
UKube-1 06 Dec 01:37:21 01:40:01 16° 272° (W) 01:42:42 .
GONETS M04 06 Dec 01:39:04 01:47:48 87° 99° (E) 01:56:34
BUGSAT 1 06 Dec 01:45:36 01:49:47 57° 291° (WNW) 01:53:53 437.445
ITUPSAT 1 06 Dec 01:53:45 01:58:32 78° 71° (ENE) 02:03:20 437.325
AO-85 06 Dec 01:54:24 01:57:10 16° 115° (ESE) 01:59:51 145.980
NANOSAT C BR1 06 Dec 02:01:42 02:04:58 22° 303° (WNW) 02:08:12 145.865
JAS-2 06 Dec 02:04:46 02:08:53 24° 307° (NW) 02:13:01 435.910
QB50P2 06 Dec 02:07:36 02:10:33 18° 306° (NW) 02:13:30 145.880/145.840
POLYITAN 1 06 Dec 02:08:07 02:11:07 19° 305° (NW) 02:14:06 437.675
QB50P1 06 Dec 02:21:31 02:24:05 16° 308° (NW) 02:26:38 145.935-145.965
DUCHIFAT 1 06 Dec 02:24:26 02:27:04 16° 307° (NW) 02:29:42 145.980
Cosmos 2504 06 Dec 02:25:27 02:27:23 11° 3° (N) 02:29:20 435.465 / 435.565
MOZHAYETS 4 06 Dec 02:33:56 02:38:23 52° 67° (ENE) 02:42:50
Gurwin Techsat 1B 06 Dec 02:34:57 02:40:14 59° 101° (ESE) 02:45:30 435.225
O/OREOS (USA 219) 06 Dec 02:37:47 02:41:43 30° 252° (WSW) 02:45:37 437.305
CUBESAT XI-V 06 Dec 02:38:21 02:41:08 16° 51° (NE) 02:43:53 437.345
Oscar 19 06 Dec 02:40:10 02:45:23 79° 290° (WNW) 02:50:35 437.125/150
AUBIESAT-1 06 Dec 02:40:22 02:44:07 29° 261° (W) 02:48:03 437.475
AO-7 06 Dec 02:43:27 02:49:25 21° 84° (E) 02:55:23 29.400- 29.500
POPSAT HIP 1 06 Dec 02:43:54 02:45:21 12° 313° (NW) 02:46:48 437.405
SO-50 06 Dec 02:53:05 02:57:30 41° 25° (NNE) 03:01:48 436.795
M-CUBED/EXP-1 PRIME 06 Dec 02:53:20 02:56:31 20° 265° (W) 02:59:51 437.505
SWISSCUBE 06 Dec 03:00:46 03:04:58 30° 266° (W) 03:09:12 437.505
BEESAT 06 Dec 03:04:48 03:09:01 31° 266° (W) 03:13:16 436.000
KKS-1 06 Dec 03:05:05 03:09:25 51° 66° (ENE) 03:13:47 437.445
ITAMSAT 1 06 Dec 03:08:21 03:13:01 32° 95° (E) 03:17:39 435.822/435.867
YUBILEINY 06 Dec 03:09:05 03:14:06 16° 30° (NNE) 03:19:08 435.215
STARS 06 Dec 03:11:47 03:15:45 33° 62° (ENE) 03:19:46 437.465
Cosmos 2499 06 Dec 03:17:31 03:25:28 36° 303° (WNW) 03:33:33 435.465 / 435.565
BUGSAT 1 06 Dec 03:22:40 03:24:19 12° 312° (NW) 03:25:57 437.445
AO-85 06 Dec 03:32:15 03:36:59 69° 134° (SE) 03:41:21 145.980
ITUPSAT 1 06 Dec 03:33:29 03:36:57 20° 271° (W) 03:40:26 437.325
GONETS M04 06 Dec 03:38:14 03:45:50 32° 306° (NW) 03:53:28
MOZHAYETS 4 06 Dec 04:11:54 04:15:49 27° 268° (W) 04:19:44
CUBESAT XI-V 06 Dec 04:13:13 04:17:47 73° 72° (ENE) 04:22:25 437.345
Gurwin Techsat 1B 06 Dec 04:15:17 04:19:58 32° 303° (WNW) 04:24:38 435.225
Cosmos 2504 06 Dec 04:19:42 04:25:36 19° 36° (NE) 04:31:25 435.465 / 435.565
Oscar 19 06 Dec 04:20:22 04:24:01 20° 310° (NW) 04:27:39 437.125/150
SO-50 06 Dec 04:33:40 04:38:13 63° 228° (SW) 04:42:39 436.795
AO-7 06 Dec 04:35:23 04:43:48 71° 108° (ESE) 04:52:10 29.400- 29.500
STRAND 1 06 Dec 04:36:47 04:39:36 15° 45° (NE) 04:42:25 437.568
KKS-1 06 Dec 04:42:23 04:46:14 27° 266° (W) 04:50:06 437.445
GOMX 1 06 Dec 04:44:50 04:47:15 13° 80° (E) 04:49:41 467.674
BEESAT 3 06 Dec 04:46:21 04:46:47 10° 111° (ESE) 04:47:14 437.485
ITAMSAT 1 06 Dec 04:47:41 04:52:45 53° 295° (WNW) 04:57:46 435.822/435.867
STARS 06 Dec 04:47:49 04:52:02 42° 261° (W) 04:56:19 437.465
YUBILEINY 06 Dec 05:05:51 05:14:06 41° 60° (ENE) 05:22:19 435.215
BRITE-PL 06 Dec 05:07:12 05:12:01 34° 94° (E) 05:17:02 437.365/2234.400
NOAA 15 06 Dec 05:07:46 05:08:13 10° 80° (E) 05:08:39 137.62
AO-85 06 Dec 05:13:25 05:17:42 38° 334° (NNW) 05:21:42 145.980
Cosmos 2499 06 Dec 05:17:15 05:21:58 15° 332° (NNW) 05:26:41 435.465 / 435.565
HORYU 2 06 Dec 05:39:22 05:43:33 38° 98° (E) 05:47:41 437.375
GONETS M04 06 Dec 05:42:34 05:46:23 13° 337° (NNW) 05:50:14
AIST 1 06 Dec 05:45:25 05:48:52 22° 61° (ENE) 05:52:18
Cosmos 2491 06 Dec 05:45:57 05:52:26 24° 73° (ENE) 05:58:52 435.465 / 435.565
CUBESAT XI-V 06 Dec 05:52:21 05:55:42 20° 272° (W) 05:59:05 437.345
STRAND 1 06 Dec 06:12:48 06:17:50 57° 66° (ENE) 06:22:52 437.568
Cosmos 2504 06 Dec 06:13:07 06:21:43 49° 64° (ENE) 06:29:57 435.465 / 435.565
SO-50 06 Dec 06:15:40 06:17:49 13° 249° (WSW) 06:19:58 436.795
BEESAT 3 06 Dec 06:19:44 06:23:35 56° 131° (SE) 06:27:29 437.485
GOMX 1 06 Dec 06:21:02 06:26:25 60° 101° (E) 06:31:51 467.674
CUTE-I 06 Dec 06:21:30 06:26:22 34° 95° (E) 06:31:11 437.470
ITAMSAT 1 06 Dec 06:28:30 06:31:12 14° 317° (NW) 06:33:53 435.822/435.867
AO-7 06 Dec 06:28:31 06:36:15 44° 311° (NW) 06:43:59 29.400- 29.500
LilacSat-2 06 Dec 06:29:29 06:33:04 38° 97° (E) 06:36:36 437.200
NOAA 18 06 Dec 06:31:02 06:35:47 28° 92° (E) 06:40:29 137.9125
DOVE 4 06 Dec 06:31:32 06:36:31 38° 94° (E) 06:41:23 437.250
NOAA 15 06 Dec 06:44:05 06:49:16 52° 101° (E) 06:54:25 137.62
BRITE-PL 06 Dec 06:45:35 06:50:42 55° 293° (WNW) 06:56:07 437.365/2234.400
Cubesat XI-IV 06 Dec 06:47:20 06:52:35 51° 100° (E) 06:57:46 437.490
BEESAT 2 06 Dec 06:48:57 06:52:49 53° 131° (SE) 06:56:46 435.950
HO-68 06 Dec 06:54:12 06:59:10 19° 84° (E) 07:04:05 435.675
AO-85 06 Dec 06:55:29 06:59:06 24° 358° (N) 07:02:31 145.980
YUBILEINY 06 Dec 07:02:50 07:11:35 69° 265° (W) 07:20:19 435.215
RS-15 06 Dec 07:03:49 07:13:51 34° 106° (ESE) 07:24:11 29.354- 29.394
PRISM 06 Dec 07:05:13 07:07:58 18° 54° (NE) 07:10:43 437.425
HORYU 2 06 Dec 07:16:01 07:20:07 36° 298° (WNW) 07:24:10 437.375
Cosmos 2499 06 Dec 07:18:16 07:20:14 11° 6° (N) 07:22:11 435.465 / 435.565
AIST 1 06 Dec 07:22:31 07:26:54 65° 263° (W) 07:31:16
Cosmos 2491 06 Dec 07:39:11 07:47:57 79° 98° (E) 07:56:43 435.465 / 435.565
UNISAT 6 06 Dec 07:40:09 07:42:29 14° 49° (NE) 07:44:48 437.425
GONETS M04 06 Dec 07:46:13 07:48:37 11° 13° (NNE) 07:51:00
CINEMA 3 06 Dec 07:49:38 07:54:27 50° 99° (E) 07:59:02 145.822/145.860
STRAND 1 06 Dec 07:52:51 07:57:20 30° 267° (W) 08:01:50 437.568
CUTE 1.7 + AOD 2 06 Dec 07:55:36 07:59:29 35° 96° (E) 08:03:22 437.475
BEESAT 3 06 Dec 07:57:41 08:01:24 37° 333° (NNW) 08:05:09 437.485
GOMX 1 06 Dec 07:59:29 08:04:15 33° 300° (WNW) 08:09:06 467.674
CUTE-I 06 Dec 08:01:28 08:06:40 52° 295° (WNW) 08:11:49 437.470
LilacSat-2 06 Dec 08:04:00 08:07:16 28° 297° (WNW) 08:10:31 437.200
Cosmos 2504 06 Dec 08:06:47 08:15:26 58° 269° (W) 08:23:42 435.465 / 435.565
CUBEBUG 2 06 Dec 08:07:22 08:10:58 23° 90° (E) 08:14:27 437.445
TIGRISAT 06 Dec 08:08:46 08:12:09 20° 55° (NE) 08:15:30 435.000
DOVE 4 06 Dec 08:09:13 08:14:18 47° 295° (WNW) 08:19:19 437.250
ANTELSAT 06 Dec 08:10:08 08:13:37 21° 55° (NE) 08:17:04 437.575/2403.000
NOAA 18 06 Dec 08:11:23 08:16:55 67° 293° (WNW) 08:22:23 137.9125
CANX-2 06 Dec 08:13:31 08:17:41 56° 101° (E) 08:21:51 2200.000
AAUSAT CUBESAT 2 06 Dec 08:18:47 08:22:13 24° 92° (E) 08:25:39 437.432
AO-7 06 Dec 08:21:29 08:27:07 21° 336° (NNW) 08:32:44 29.400- 29.500
NOAA 15 06 Dec 08:24:10 08:28:56 35° 301° (WNW) 08:33:41 137.62
BRITE-PL 06 Dec 08:25:25 08:28:15 15° 313° (NW) 08:31:10 437.365/2234.400
BEESAT 2 06 Dec 08:27:01 08:30:47 39° 332° (NNW) 08:34:36 435.950
Cubesat XI-IV 06 Dec 08:27:41 08:32:34 37° 301° (WNW) 08:37:24 437.490
Oscar 11 06 Dec 08:32:49 08:35:34 16° 87° (E) 08:38:18 145.826/435.025
AO-85 06 Dec 08:36:39 08:40:33 34° 23° (NNE) 08:44:14 145.980
SEEDS 06 Dec 08:38:40 08:42:50 61° 102° (ESE) 08:46:58 437.485
PRISM 06 Dec 08:38:41 08:42:46 83° 254° (WSW) 08:46:55 437.425
HO-68 06 Dec 08:40:58 08:48:13 72° 106° (ESE) 08:55:25 435.675
COMPASS 1 06 Dec 08:48:50 08:52:55 54° 100° (E) 08:57:01 437.405
UWE-3 06 Dec 08:49:20 08:53:23 35° 95° (E) 08:57:18 435.000/436.395/437.385
JAS-2 06 Dec 08:55:41 08:59:56 21° 50° (NE) 09:03:56 435.910
POPSAT HIP 1 06 Dec 08:58:47 08:59:19 10° 46° (NE) 08:59:51 437.405
YUBILEINY 06 Dec 09:00:53 09:06:48 21° 290° (WNW) 09:12:43 435.215
AIST 1 06 Dec 09:02:50 09:03:36 10° 283° (WNW) 09:04:23
Cosmos 2499 06 Dec 09:11:57 09:18:03 20° 38° (NE) 09:23:55 435.465 / 435.565
RS-15 06 Dec 09:12:49 09:24:48 83° 133° (SE) 09:37:14 29.354- 29.394
UNISAT 6 06 Dec 09:13:46 09:18:23 60° 69° (ENE) 09:22:56 437.425
DELFI C3 06 Dec 09:16:32 09:19:05 16° 88° (E) 09:21:36 145.870
AIST 2 06 Dec 09:17:19 09:21:21 52° 130° (SE) 09:25:27 435.215
HUMSAT D 06 Dec 09:22:27 09:23:34 11° 83° (E) 09:24:41 437.325/437.525
CINEMA 3 06 Dec 09:27:03 09:31:25 32° 300° (WNW) 09:35:37 145.822/145.860
ZACube-1 06 Dec 09:30:00 09:34:13 53° 100° (E) 09:38:20 437.345
CUTE 1.7 + AOD 2 06 Dec 09:31:30 09:35:22 36° 295° (WNW) 09:39:13 437.475
BEESAT 3 06 Dec 09:36:46 09:39:57 22° 356° (N) 09:43:08 437.485
FUNcube-1 06 Dec 09:37:35 09:41:50 58° 101° (E) 09:45:57 145.935
Cosmos 2491 06 Dec 09:37:51 09:45:45 36° 303° (WNW) 09:53:40 435.465 / 435.565
CUTE-I 06 Dec 09:42:50 09:45:40 15° 317° (NW) 09:48:28 437.470
GONETS M04 06 Dec 09:43:05 09:49:52 24° 45° (NE) 09:56:36
CUBEBUG 2 06 Dec 09:43:33 09:47:59 58° 291° (WNW) 09:52:14 437.445
TIGRISAT 06 Dec 09:43:38 09:48:20 85° 254° (WSW) 09:52:59 435.000
ANTELSAT 06 Dec 09:45:11 09:49:52 80° 256° (WSW) 09:54:31 437.575/2403.000
DOVE 4 06 Dec 09:48:26 09:50:50 13° 316° (NW) 09:53:15 437.250
CANX-2 06 Dec 09:49:53 09:53:17 24° 301° (WNW) 09:56:40 2200.000
NANOSAT C BR1 06 Dec 09:49:56 09:53:15 22° 57° (ENE) 09:56:34 145.865
NOAA 18 06 Dec 09:52:58 09:56:42 19° 315° (NW) 10:00:25 137.9125
AAUSAT CUBESAT 2 06 Dec 09:53:57 09:57:57 49° 292° (WNW) 10:01:57 437.432
QB50P2 06 Dec 09:55:38 09:59:14 27° 60° (ENE) 10:02:51 145.880/145.840
POLYITAN 1 06 Dec 09:56:12 09:59:46 26° 59° (ENE) 10:03:21 437.675
Cosmos 2504 06 Dec 10:01:44 10:06:53 17° 294° (WNW) 10:11:57 435.465 / 435.565
BEESAT 2 06 Dec 10:06:15 10:09:30 23° 355° (N) 10:12:44 435.950
NOAA 15 06 Dec 10:06:25 10:07:21 10° 323° (NW) 10:08:17 137.62
Oscar 11 06 Dec 10:07:57 10:12:17 81° 289° (WNW) 10:16:35 145.826/435.025
QB50P1 06 Dec 10:08:52 10:12:40 32° 62° (ENE) 10:16:29 145.935-145.965
Cubesat XI-IV 06 Dec 10:09:55 10:11:16 11° 323° (NW) 10:12:38 437.490
DUCHIFAT 1 06 Dec 10:11:30 10:15:13 30° 61° (ENE) 10:18:57 145.980
AO-7 06 Dec 10:12:30 10:16:59 16° 4° (N) 10:21:28 29.400- 29.500
SEEDS 06 Dec 10:14:57 10:18:13 22° 301° (WNW) 10:21:28 437.485
PRISM 06 Dec 10:16:59 10:18:47 12° 274° (W) 10:20:34 437.425
AO-85 06 Dec 10:17:10 10:21:18 71° 225° (SW) 10:25:11 145.980
CUSAT 1 06 Dec 10:21:32 10:24:21 73° 286° (WNW) 10:26:58 437.405
COMPASS 1 06 Dec 10:24:52 10:28:14 24° 300° (WNW) 10:31:35 437.405
UWE-3 06 Dec 10:25:51 10:29:54 37° 296° (WNW) 10:33:49 435.000/436.395/437.385
HO-68 06 Dec 10:29:06 10:35:34 38° 308° (NW) 10:42:02 435.675
POPSAT HIP 1 06 Dec 10:30:02 10:34:08 46° 66° (ENE) 10:38:15 437.405
JAS-2 06 Dec 10:38:15 10:44:27 80° 71° (ENE) 10:49:59 435.910
ESTCUBE 1 06 Dec 10:38:52 10:40:39 12° 83° (E) 10:42:27 437.505/2401.250
PCSat 06 Dec 10:47:58 10:50:14 13° 103° (ESE) 10:52:30 145.827
Oscar 19 06 Dec 10:48:58 10:52:04 16° 46° (NE) 10:55:09 437.125/150
Gurwin Techsat 1B 06 Dec 10:48:58 10:50:41 12° 39° (NE) 10:52:23 435.225
DELFI C3 06 Dec 10:50:24 10:54:22 73° 288° (WNW) 10:58:21 145.870
UNISAT 6 06 Dec 10:51:36 10:55:26 25° 269° (W) 10:59:14 437.425
HUMSAT D 06 Dec 10:55:53 10:59:59 73° 104° (ESE) 11:04:04 437.325/437.525
AIST 2 06 Dec 10:56:00 10:59:59 41° 331° (NNW) 11:04:00 435.215
Cosmos 2499 06 Dec 11:05:05 11:13:41 53° 66° (ENE) 11:21:44 435.465 / 435.565
ZACube-1 06 Dec 11:06:43 11:10:17 26° 301° (WNW) 11:13:45 437.345
BUGSAT 1 06 Dec 11:07:01 11:11:01 41° 65° (ENE) 11:15:02 437.445
DANDE 06 Dec 11:08:51 11:12:52 87° 281° (W) 11:16:00 436.750
CUBEBUG 1 06 Dec 11:09:12 11:11:43 15° 86° (E) 11:14:12 437.445
FUNcube-1 06 Dec 11:14:21 11:17:47 24° 302° (WNW) 11:21:09 145.935
BEESAT 3 06 Dec 11:15:07 11:18:37 28° 19° (NNE) 11:22:08 437.485
VELOX 1 06 Dec 11:20:58 11:23:08 13° 85° (E) 11:25:18 145.980
CUBEBUG 2 06 Dec 11:21:43 11:23:42 13° 312° (NW) 11:25:40 437.445
TIGRISAT 06 Dec 11:22:58 11:25:43 15° 274° (W) 11:28:28 435.000
NANOSAT C BR1 06 Dec 11:24:22 11:28:37 65° 258° (WSW) 11:32:54 145.865
ANTELSAT 06 Dec 11:24:48 11:27:20 14° 275° (W) 11:29:51 437.575/2403.000
RS-15 06 Dec 11:26:17 11:38:21 61° 343° (NNW) 11:50:41 29.354- 29.394
QB50P2 06 Dec 11:30:38 11:34:50 51° 260° (W) 11:39:03 145.880/145.840
POLYITAN 1 06 Dec 11:31:07 11:35:20 53° 259° (W) 11:39:35 437.675
AAUSAT CUBESAT 2 06 Dec 11:32:00 11:32:32 10° 312° (NW) 11:33:03 437.432
GONETS M04 06 Dec 11:39:54 11:48:38 68° 73° (ENE) 11:57:19
Cosmos 2491 06 Dec 11:41:43 11:46:05 14° 334° (NNW) 11:50:28 435.465 / 435.565
QB50P1 06 Dec 11:44:17 11:48:22 41° 262° (W) 11:52:28 145.935-145.965
BEESAT 2 06 Dec 11:44:48 11:48:21 28° 19° (NNE) 11:51:54 435.950
Oscar 11 06 Dec 11:45:12 11:47:48 16° 307° (NW) 11:50:24 145.826/435.025
DUCHIFAT 1 06 Dec 11:46:41 11:50:46 44° 261° (W) 11:54:54 145.980
SPROUT 06 Dec 11:51:25 11:54:17 17° 88° (E) 11:57:07 437.525
AO-85 06 Dec 11:59:05 12:00:55 13° 247° (WSW) 12:02:42 145.980
AO-7 06 Dec 12:00:48 12:07:02 24° 31° (NNE) 12:13:17 29.400- 29.500
50 SAT 06 Dec 12:02:14 12:05:02 21° 93° (E) 12:07:49 437.505
POPSAT HIP 1 06 Dec 12:06:22 12:10:05 28° 266° (W) 12:13:50 437.405
ESTCUBE 1 06 Dec 12:13:47 12:18:19 71° 104° (ESE) 12:22:50 437.505/2401.250
HO-68 06 Dec 12:17:37 12:21:28 15° 333° (NNW) 12:25:20 435.675
AISAT 06 Dec 12:19:03 12:23:19 40° 98° (E) 12:27:33 437.250
Gurwin Techsat 1B 06 Dec 12:24:26 12:29:20 39° 61° (ENE) 12:34:16 435.225
JAS-2 06 Dec 12:25:19 12:30:08 23° 270° (W) 12:34:35 435.910
Oscar 19 06 Dec 12:25:27 12:30:30 63° 68° (ENE) 12:35:37 437.125/150
DELFI C3 06 Dec 12:26:38 12:28:33 13° 308° (NW) 12:30:27 145.870
PCSat 06 Dec 12:27:15 12:32:31 56° 124° (SE) 12:37:51 145.827
HUMSAT D 06 Dec 12:32:17 12:35:11 19° 304° (WNW) 12:38:04 437.325/437.525
AIST 2 06 Dec 12:35:55 12:39:22 24° 355° (N) 12:42:51 435.215
BUGSAT 1 06 Dec 12:42:41 12:46:29 31° 265° (W) 12:50:20 437.445
CUBEBUG 1 06 Dec 12:44:12 12:48:41 86° 106° (ESE) 12:53:08 437.445
BEESAT 3 06 Dec 12:52:44 12:56:45 83° 39° (NE) 13:00:46 437.485
VELOX 1 06 Dec 12:55:52 13:00:23 78° 105° (ESE) 13:04:51 145.980
ITAMSAT 1 06 Dec 12:55:53 12:59:58 24° 53° (NE) 13:04:04 435.822/435.867
Cosmos 2499 06 Dec 12:58:33 13:06:56 52° 271° (W) 13:14:49 435.465 / 435.565
NANOSAT C BR1 06 Dec 13:04:26 13:05:13 10° 277° (W) 13:06:00 145.865
DX 1 06 Dec 13:08:01 13:12:23 60° 102° (ESE) 13:16:45 434.975-435.025
TISAT 1 06 Dec 13:11:55 13:15:01 19° 90° (E) 13:18:07 437.305
UKube-1 06 Dec 13:14:28 13:18:45 53° 101° (ESE) 13:23:00 .
BEESAT 2 06 Dec 13:22:36 13:26:40 81° 39° (NE) 13:30:43 435.950
SPROUT 06 Dec 13:26:26 13:30:46 78° 289° (WNW) 13:35:03 437.525
50 SAT 06 Dec 13:35:08 13:38:33 44° 292° (WNW) 13:41:56 437.505
GONETS M04 06 Dec 13:37:12 13:45:00 39° 277° (W) 13:52:49
RS-15 06 Dec 13:40:56 13:53:10 60° 16° (NNE) 14:05:22 29.354- 29.394
Cosmos 2491 06 Dec 13:46:15 13:48:17 11° 9° (N) 13:50:18 435.465 / 435.565
ITUPSAT 1 06 Dec 13:48:30 13:50:15 12° 83° (E) 13:51:59 437.325
AO-7 06 Dec 13:50:15 13:58:18 57° 56° (NE) 14:06:24 29.400- 29.500
ESTCUBE 1 06 Dec 13:51:15 13:54:44 22° 304° (NW) 13:58:14 437.505/2401.250
AISAT 06 Dec 13:55:40 13:59:45 35° 298° (WNW) 14:03:49 437.250
Gurwin Techsat 1B 06 Dec 14:04:09 14:09:16 46° 261° (W) 14:14:25 435.225
Oscar 19 06 Dec 14:05:56 14:10:14 27° 268° (W) 14:14:37 437.125/150
PCSat 06 Dec 14:10:54 14:16:08 46° 327° (NNW) 14:21:23 145.827
AUBIESAT-1 06 Dec 14:12:13 14:14:23 13° 90° (E) 14:16:30 437.475
AIST 2 06 Dec 14:15:11 14:18:57 30° 19° (NNE) 14:22:42 435.215
CUBEBUG 1 06 Dec 14:21:20 14:24:26 19° 306° (NW) 14:27:33 437.445
M-CUBED/EXP-1 PRIME 06 Dec 14:23:57 14:27:22 20° 95° (E) 14:30:42 437.505
BEESAT 3 06 Dec 14:31:02 14:33:57 20° 242° (WSW) 14:36:52 437.485
VELOX 1 06 Dec 14:33:04 14:36:23 21° 305° (NW) 14:39:42 145.980
ITAMSAT 1 06 Dec 14:33:43 14:38:57 83° 253° (WSW) 14:44:13 435.822/435.867
DX 1 06 Dec 14:44:42 14:48:18 25° 303° (WNW) 14:51:53 434.975-435.025
TISAT 1 06 Dec 14:46:52 14:51:06 66° 290° (WNW) 14:55:17 437.305
BRITE-PL 06 Dec 14:49:54 14:52:34 15° 48° (NE) 14:55:21 437.365/2234.400
UKube-1 06 Dec 14:50:55 14:54:34 27° 301° (WNW) 14:58:13 .
SWISSCUBE 06 Dec 14:52:23 14:56:55 41° 98° (E) 15:01:23 437.505
Cosmos 2499 06 Dec 14:53:38 14:57:56 15° 296° (WNW) 15:02:06 435.465 / 435.565
BEESAT 06 Dec 14:56:23 15:00:54 40° 98° (E) 15:05:22 436.000
NOAA 15 06 Dec 14:58:10 14:59:10 11° 37° (NE) 15:00:09 137.62
BEESAT 2 06 Dec 15:01:01 15:04:03 21° 241° (WSW) 15:07:05 435.950
Cubesat XI-IV 06 Dec 15:02:39 15:03:54 11° 37° (NE) 15:05:08 437.490
SPROUT 06 Dec 15:03:30 15:06:03 16° 308° (NW) 15:08:34 437.525
HORYU 2 06 Dec 15:09:43 15:12:46 18° 52° (NE) 15:15:49 437.375
O/OREOS (USA 219) 06 Dec 15:20:42 15:22:33 12° 98° (E) 15:24:25 437.305
ITUPSAT 1 06 Dec 15:24:17 15:29:03 65° 103° (ESE) 15:33:47 437.325
AO-7 06 Dec 15:43:14 15:51:16 51° 259° (W) 15:59:23 29.400- 29.500
Cosmos 2491 06 Dec 15:43:19 15:49:46 22° 42° (NE) 15:56:11 435.465 / 435.565
AUBIESAT-1 06 Dec 15:44:57 15:49:37 70° 110° (ESE) 15:54:08 437.475
HO-68 06 Dec 15:47:36 15:51:14 15° 26° (NNE) 15:54:53 435.675
LilacSat-2 06 Dec 15:47:45 15:48:26 10° 50° (NE) 15:49:08 437.200
AIST 2 06 Dec 15:53:42 15:57:57 81° 39° (NE) 16:02:12 435.215
RS-15 06 Dec 15:54:23 16:06:50 85° 226° (SW) 16:19:02 29.354- 29.394
PCSat 06 Dec 15:56:14 16:00:46 26° 351° (N) 16:05:19 145.827
M-CUBED/EXP-1 PRIME 06 Dec 15:57:37 16:02:22 82° 294° (WNW) 16:07:00 437.505
MOZHAYETS 4 06 Dec 15:58:13 16:02:35 43° 98° (E) 16:06:56
GOMX 1 06 Dec 15:59:43 16:03:40 26° 56° (NE) 16:07:53 467.674
CUBESAT XI-V 06 Dec 16:04:00 16:05:33 11° 82° (E) 16:07:06 437.345
DOVE 4 06 Dec 16:08:27 16:11:53 19° 50° (NE) 16:15:24 437.250
CUTE-I 06 Dec 16:12:19 16:16:39 26° 53° (NE) 16:21:01 437.470
ITAMSAT 1 06 Dec 16:15:54 16:19:15 17° 274° (W) 16:22:37 435.822/435.867
TISAT 1 06 Dec 16:23:54 16:26:00 14° 310° (NW) 16:28:04 437.305
KKS-1 06 Dec 16:24:51 16:29:00 35° 96° (E) 16:33:06 437.445
BRITE-PL 06 Dec 16:25:47 16:30:12 69° 71° (ENE) 16:35:01 437.365/2234.400
NOAA 18 06 Dec 16:25:48 16:30:15 25° 51° (NE) 16:34:42 137.9125
STARS 06 Dec 16:29:45 16:33:12 22° 91° (E) 16:36:37 437.465
SWISSCUBE 06 Dec 16:30:19 16:34:43 38° 298° (WNW) 16:39:05 437.505
NOAA 15 06 Dec 16:32:51 16:37:35 36° 59° (ENE) 16:42:21 137.62
BEESAT 06 Dec 16:34:17 16:38:42 38° 298° (WNW) 16:43:05 436.000
Cubesat XI-IV 06 Dec 16:37:44 16:42:36 36° 59° (ENE) 16:47:28 437.490
HORYU 2 06 Dec 16:44:15 16:48:45 88° 73° (ENE) 16:53:16 437.375
O/OREOS (USA 219) 06 Dec 16:56:37 17:01:08 69° 119° (ESE) 17:05:40 437.305
ITUPSAT 1 06 Dec 17:02:39 17:06:34 26° 304° (WNW) 17:10:28 437.325
LilacSat-2 06 Dec 17:18:11 17:21:57 57° 71° (ENE) 17:25:45 437.200
AUBIESAT-1 06 Dec 17:19:48 17:23:39 26° 310° (NW) 17:27:26 437.475
ISS 06 Dec 17:20:36 17:22:47 17° 150° (SSE) 17:25:00 145.825
CUTE 1.7 + AOD 2 06 Dec 17:22:19 17:24:11 13° 50° (NE) 17:26:04 437.475
CINEMA 3 06 Dec 17:22:23 17:26:14 23° 55° (NE) 17:30:05 145.822/145.860
HO-68 06 Dec 17:30:44 17:37:03 35° 50° (NE) 17:43:24 435.675
AIST 2 06 Dec 17:32:45 17:36:02 22° 241° (WSW) 17:39:18 435.215
M-CUBED/EXP-1 PRIME 06 Dec 17:32:47 17:36:13 20° 315° (NW) 17:39:38 437.505
MOZHAYETS 4 06 Dec 17:35:35 17:39:42 33° 298° (WNW) 17:43:47
GOMX 1 06 Dec 17:36:39 17:41:21 67° 258° (WSW) 17:46:27 467.674
CANX-2 06 Dec 17:39:10 17:42:05 18° 55° (NE) 17:44:59 2200.000
CUBEBUG 2 06 Dec 17:39:11 17:40:46 12° 46° (NE) 17:42:22 437.445
CUBESAT XI-V 06 Dec 17:39:13 17:43:52 65° 102° (ESE) 17:48:32 437.345
Cosmos 2491 06 Dec 17:40:08 17:48:48 61° 70° (ENE) 17:57:25 435.465 / 435.565
PCSat 06 Dec 17:40:59 17:45:43 29° 17° (NNE) 17:50:27 145.827
AO-7 06 Dec 17:42:31 17:46:16 13° 283° (WNW) 17:50:04 29.400- 29.500
DOVE 4 06 Dec 17:43:51 17:48:46 76° 71° (ENE) 17:54:00 437.250
CUTE-I 06 Dec 17:50:52 17:56:15 78° 254° (WSW) 18:01:40 437.470
KKS-1 06 Dec 18:01:25 18:05:38 40° 296° (WNW) 18:09:49 437.445
SEEDS 06 Dec 18:03:16 18:06:13 19° 56° (ENE) 18:09:11 437.485
NOAA 18 06 Dec 18:04:48 18:10:23 85° 252° (WSW) 18:16:00 137.9125
STARS 06 Dec 18:05:32 18:09:58 64° 291° (WNW) 18:14:20 437.465
BRITE-PL 06 Dec 18:05:58 18:09:18 20° 273° (W) 18:12:50 437.365/2234.400
RS-15 06 Dec 18:07:21 18:17:57 36° 253° (WSW) 18:28:21 29.354- 29.394
NOAA 15 06 Dec 18:12:10 18:17:16 51° 260° (W) 18:22:24 137.62
COMPASS 1 06 Dec 18:12:51 18:15:32 17° 55° (NE) 18:18:14 437.405
BEESAT 06 Dec 18:15:13 18:15:19 10° 319° (NW) 18:15:23 436.000
Cubesat XI-IV 06 Dec 18:17:17 18:22:33 53° 260° (W) 18:27:50 437.490
YUBILEINY 06 Dec 18:17:45 18:25:08 33° 79° (E) 18:32:35 435.215
STRAND 1 06 Dec 18:18:08 18:19:15 11° 80° (E) 18:20:21 437.568
UWE-3 06 Dec 18:19:00 18:21:42 16° 51° (NE) 18:24:23 435.000/436.395/437.385
HORYU 2 06 Dec 18:23:11 18:25:57 16° 273° (W) 18:28:43 437.375
O/OREOS (USA 219) 06 Dec 18:37:03 18:40:58 28° 320° (NW) 18:44:53 437.305
LilacSat-2 06 Dec 18:53:47 18:56:36 19° 270° (W) 18:59:25 437.200
CUTE 1.7 + AOD 2 06 Dec 18:55:07 18:59:16 64° 71° (ENE) 19:03:28 437.475
ISS 06 Dec 18:55:38 18:58:42 36° 169° (S) 19:01:47 145.825
CINEMA 3 06 Dec 18:57:49 19:02:49 84° 255° (WSW) 19:07:54 145.822/145.860
ZACube-1 06 Dec 18:57:55 19:01:12 20° 56° (NE) 19:04:25 437.345
Cosmos 2504 06 Dec 19:01:22 19:08:32 31° 78° (ENE) 19:15:55 435.465 / 435.565
CUSAT 1 06 Dec 19:02:36 19:04:45 16° 64° (ENE) 19:07:10 437.405
FUNcube-1 06 Dec 19:05:07 19:08:28 21° 57° (ENE) 19:11:48 145.935
CUBEBUG 2 06 Dec 19:11:51 19:16:25 48° 67° (ENE) 19:20:54 437.445
CANX-2 06 Dec 19:13:14 19:17:28 80° 256° (WSW) 19:21:42 2200.000
AAUSAT CUBESAT 2 06 Dec 19:15:47 19:19:40 42° 66° (ENE) 19:23:34 437.432
HO-68 06 Dec 19:17:08 19:24:19 77° 253° (WSW) 19:31:34 435.675
CUBESAT XI-V 06 Dec 19:17:09 19:20:56 25° 302° (WNW) 19:24:42 437.345
GOMX 1 06 Dec 19:18:30 19:20:34 13° 280° (W) 19:22:42 467.674
DOVE 4 06 Dec 19:23:14 19:27:04 22° 273° (W) 19:31:04 437.250
PCSat 06 Dec 19:24:38 19:30:04 65° 41° (NE) 19:35:28 145.827
CUTE-I 06 Dec 19:33:52 19:37:12 16° 275° (W) 19:40:33 437.470
Oscar 11 06 Dec 19:34:15 19:38:05 32° 62° (ENE) 19:41:55 145.826/435.025
SEEDS 06 Dec 19:37:19 19:41:29 75° 257° (WSW) 19:45:41 437.485
Cosmos 2491 06 Dec 19:37:23 19:45:26 44° 275° (W) 19:53:28 435.465 / 435.565
STARS 06 Dec 19:43:15 19:45:32 14° 311° (NW) 19:47:47 437.465
COMPASS 1 06 Dec 19:46:26 19:50:34 86° 252° (WSW) 19:54:44 437.405
NOAA 18 06 Dec 19:48:04 19:51:53 19° 273° (W) 19:55:45 137.9125
UWE-3 06 Dec 19:52:50 19:57:28 71° 72° (ENE) 20:02:02 435.000/436.395/437.385
STRAND 1 06 Dec 19:54:33 19:59:36 56° 101° (E) 20:04:36 437.568
DANDE 06 Dec 19:56:30 19:57:03 10° 60° (ENE) 19:57:35 436.750
AIST 1 06 Dec 19:59:16 20:03:25 48° 95° (E) 20:07:39
Cubesat XI-IV 06 Dec 20:02:55 20:03:55 10° 281° (W) 20:04:54 437.490
DELFI C3 06 Dec 20:08:59 20:12:17 26° 61° (ENE) 20:15:36 145.870
